EW4092 Weather Reports


time (UTC)temp
C
wind
direction
speed
KPH
gust
KPH
rain 1hr
cm
rain 24hr
cm
rain mn
cm
humidity
%
barometer
mb
20260904061631 11 108 0.0 0.0 0.03 0.81 0.79 95 1009.5
20260904060029 11 107 0.0 1.6 0.03 0.81 0.79 95 1009.6
20260904054533 11 107 0.0 1.6 0.03 0.86 0.79 95 1009.7
20260904053026 11 107 0.0 3.2 0.00 0.84 0.76 95 1009.6
20260904051524 11 96 0.0 0.0 0.03 0.84 0.76 95 1009.8
20260904050028 11 94 0.0 1.6 0.15 0.84 0.76 95 1009.9
20260904044524 11 204 0.0 1.6 0.76 0.91 0.76 95 1009.9
20260904043124 11 142 0.0 1.6 0.76 0.91 0.76 94 1009.9
20260904041526 11 229 0.0 3.2 0.71 0.89 0.71 93 1010.0
20260904040023 12 44 0.0 6.4 0.61 0.76 0.61 88 1009.8
20260904034521 15 67 3.2 8.0 0.00 0.15 0.00 56 1009.5
20260904033021 15 84 0.0 6.4 0.00 0.15 0.00 55 1009.2
20260904031521 15 110 0.0 12.9 0.00 0.15 0.00 55 1008.9
20260904030029 15 146 1.6 4.8 0.00 0.15 0.00 55 1008.7
20260904024621 16 109 0.0 6.4 0.00 0.15 0.00 54 1008.5
20260904023019 16 98 3.2 11.3 0.00 0.15 0.00 53 1008.1
20260904021530 16 100 3.2 9.7 0.00 0.15 0.00 51 1007.9
20260904020018 17 141 4.8 14.5 0.00 0.15 0.00 49 1007.9
20260904014521 18 174 0.0 8.0 0.00 0.15 0.00 47 1007.7
20260904013017 19 67 0.0 1.6 0.00 0.15 0.00 42 1007.6
20260904011516 20 281 1.6 11.3 0.00 0.15 0.00 39 1007.5
20260904010117 21 19 0.0 9.7 0.00 0.15 0.00 36 1007.5
20260904004516 20 305 4.8 14.5 0.00 0.15 0.00 37 1007.5
20260904003019 21 328 1.6 12.9 0.00 0.15 0.00 37 1007.6
20260904001514 21 27 1.6 12.9 0.00 0.15 0.00 36 1007.7
20260904000013 21 50 4.8 11.3 0.00 0.15 0.00 35 1007.6
20260903234512 21 84 1.6 11.3 0.00 0.15 0.00 35 1007.6
20260903233009 21 293 3.2 8.0 0.00 0.15 0.00 35 1007.8
20260903231617 21 28 9.7 17.7 0.00 0.15 0.00 34 1008.0
20260903230010 21 298 6.4 16.1 0.00 0.15 0.00 36 1008.2
20260903224505 21 61 6.4 14.5 0.00 0.18 0.00 37 1008.3
20260903223003 21 326 6.4 14.5 0.00 0.18 0.00 40 1008.4
20260903221502 20 329 4.8 20.9 0.00 0.18 0.00 41 1008.4
20260903220002 21 47 6.4 16.1 0.00 0.18 0.00 39 1008.6
20260903214604 20 343 8.0 22.5 0.00 0.20 0.00 39 1008.6
20260903213057 20 1 4.8 16.1 0.00 0.20 0.00 40 1008.5
20260903211555 20 307 6.4 24.1 0.00 0.20 0.00 40 1008.6
20260903210055 20 47 4.8 19.3 0.00 0.20 0.00 42 1008.7
20260903204556 20 32 9.7 20.9 0.00 0.20 0.00 39 1008.7
20260903203054 20 30 12.9 20.9 0.00 0.20 0.00 39 1008.9
20260903201549 20 360 4.8 20.9 0.00 0.20 0.00 44 1009.0
20260903200050 20 86 8.0 19.3 0.00 0.20 0.00 43 1009.2
20260903194545 20 325 6.4 16.1 0.00 0.20 0.00 44 1009.2
20260903193044 19 47 9.7 17.7 0.00 0.20 0.00 45 1009.3
20260903191541 19 9 6.4 12.9 0.00 0.20 0.00 44 1009.3
20260903190038 18 20 6.4 19.3 0.00 0.20 0.00 45 1009.6
20260903184537 18 42 6.4 16.1 0.00 0.20 0.00 48 1009.8
20260903183036 18 309 3.2 17.7 0.00 0.20 0.00 49 1009.7
20260903181534 18 81 4.8 11.3 0.00 0.20 0.00 46 1009.8
20260903180050 18 331 1.6 19.3 0.00 0.20 0.00 51 1009.9
20260903174528 17 302 1.6 19.3 0.00 0.20 0.00 55 1010.0
20260903173024 16 84 3.2 16.1 0.00 0.20 0.00 61 1009.9
20260903171520 15 294 4.8 11.3 0.00 0.20 0.00 67 1010.1
20260903170020 15 287 4.8 8.0 0.00 0.20 0.00 67 1010.2
20260903164513 14 337 3.2 8.0 0.00 0.20 0.00 68 1010.3
20260903163008 14 269 1.6 8.0 0.00 0.20 0.00 70 1010.4
20260903161508 13 250 6.4 11.3 0.00 0.20 0.00 70 1010.4
20260903160007 13 67 0.0 6.4 0.00 0.20 0.00 72 1010.5
20260903154502 13 359 0.0 4.8 0.00 0.20 0.00 75 1010.4
20260903153002 12 312 0.0 3.2 0.00 0.20 0.00 79 1010.4
20260903151503 12 212 0.0 0.0 0.00 0.20 0.00 78 1010.4
20260903150108 13 75 0.0 0.0 0.00 0.20 0.00 80 1010.5
20260903144558 10 75 0.0 0.0 0.00 0.20 0.00 90 1010.5
20260903143056 8 75 0.0 0.0 0.00 0.20 0.00 93 1010.4
20260903141557 7 75 0.0 0.0 0.00 0.20 0.00 95 1010.2
20260903140053 6 75 0.0 1.6 0.00 0.20 0.00 94 1010.1
20260903134550 6 75 0.0 1.6 0.00 0.20 0.00 93 1009.9
20260903133047 6 75 0.0 0.0 0.00 0.20 0.00 94 1009.8
20260903131546 6 75 0.0 0.0 0.00 0.20 0.00 94 1009.7
20260903130108 6 75 0.0 1.6 0.00 0.20 0.00 94 1009.5
20260903124543 6 75 0.0 1.6 0.00 0.20 0.00 93 1009.6
20260903123040 7 75 0.0 0.0 0.00 0.20 0.00 93 1009.7
20260903121545 7 75 0.0 3.2 0.00 0.20 0.00 92 1009.7
20260903120035 8 75 0.0 0.0 0.00 0.20 0.00 93 1009.4
20260903114535 8 75 0.0 1.6 0.00 0.20 0.00 94 1009.4
20260903113036 8 75 0.0 0.0 0.00 0.20 0.00 92 1009.3
20260903111529 8 75 0.0 4.8 0.00 0.20 0.00 92 1009.3
20260903110103 8 82 0.0 1.6 0.00 0.20 0.00 92 1008.9
20260903104523 9 82 0.0 1.6 0.00 0.20 0.00 92 1008.8
20260903103022 10 82 0.0 1.6 0.00 0.20 0.00 93 1008.8
20260903101517 10 82 0.0 1.6 0.00 0.20 0.00 93 1008.6
20260903100014 10 82 0.0 3.2 0.00 0.20 0.00 93 1008.6
20260903094523 11 82 1.6 4.8 0.00 0.20 0.00 93 1008.5
20260903093007 11 132 0.0 0.0 0.00 0.20 0.00 92 1008.3
20260903091505 11 133 0.0 0.0 0.00 0.20 0.00 92 1008.3
20260903090005 11 133 0.0 0.0 0.00 0.20 0.00 92 1008.3
20260903084501 11 133 0.0 1.6 0.00 0.20 0.00 91 1008.0
20260903083158 12 208 0.0 0.0 0.00 0.20 0.00 89 1007.8
20260903081607 12 208 0.0 1.6 0.00 0.20 0.00 90 1007.8
20260903080056 12 208 0.0 3.2 0.00 0.20 0.00 91 1007.7
20260903074606 12 208 0.0 1.6 0.03 0.20 0.00 91 1007.5
20260903073052 12 208 0.0 1.6 0.03 0.20 0.00 90 1007.3
20260903071553 12 208 0.0 1.6 0.03 0.20 0.00 89 1007.2
20260903070047 13 208 0.0 3.2 0.03 0.20 0.00 89 1007.2
20260903064645 13 202 0.0 1.6 0.00 0.18 0.18 89 1007.2
20260903063045 13 248 0.0 1.6 0.00 0.18 0.18 89 1007.2